Location: Ay?beleni
(36.6500°N, 30.3000°E)
Time: 01:14:31
(UTC+00:00)

GEOS 3 Rocket - Pass Details

Date: 09 April 2020
Orbit: 774 x 845 km, 115.0° (Epoch: 25 May)

Event Time Altitude Azimuth Distance (km) Brightness Sun altitude
Exits shadow 17:46:16 19° 146° (SSE) 1,803 4.9 -15.8°
Maximum altitude 17:50:00 88° 237° (WSW) 802 3.6 -16.5°
Drops below altitude 10° 17:55:12 10° 326° (NW) 2,396 6.9 -17.4°
Sets 17:57:32 0° 327° (NNW) 3,341 7.8 -17.9°
